Regional Weather Roundup
Issued by NWS

Home | Current Version | Previous Version | Graphics & Text | Print | Product List | Glossary Off
Versions: 1 2 3 4 5 6 7 8 9 10 11 12 13 14 15 16 17 18 19 20 21 22 23 24 25 26 27 28 29 30 31 32 33 34 35 36 37 38 39 40 41 42 43 44 45 46 47 48 49 50

000
ASUS43 KTOP 211759
RWRKS

WEATHER ROUNDUP FOR KANSAS
NATIONAL WEATHER SERVICE GOODLAND KS
1200 PM CST SAT JAN 21 2017

NOTE:  "FAIR" INDICATES FEW OR NO CLOUDS BELOW 12,000 FEET WITH NO
SIGNIFICANT WEATHER AND/OR OBSTRUCTIONS TO VISIBILITY.

KSZ001>006-013>018-027>032-041>047-211900-
NORTHWEST KANSAS

CITY           SKY/WX    TMP DP  RH WIND       PRES   REMARKS
GOODLAND       CLOUDY    41  35  79 SE7       29.42S
6HR MIN TEMP:  22; 6HR MAX TEMP:  42;

HAYS           SUNNY     46  37  71 SE7       29.48F
HILL CITY      SUNNY     50  39  66 SE5       29.47R
6HR MIN TEMP:  28; 6HR MAX TEMP:  50;

RUSSELL        SUNNY     48  38  68 SE7       29.47F
6HR MIN TEMP:  30; 6HR MAX TEMP:  48;

$$

KSZ061>065-074>080-084>089-211900-
SOUTHWEST KANSAS

CITY           SKY/WX    TMP DP  RH WIND       PRES   REMARKS
DODGE CITY     SUNNY     48  37  65 SE14      29.42F
6HR MIN TEMP:  23; 6HR MAX TEMP:  48;

ELKHART          N/A     46  31  56 SW7         N/A
GARDEN CITY    CLOUDY    45  35  68 E8        29.40F
6HR MIN TEMP:  23; 6HR MAX TEMP:  45;

GREAT BEND     SUNNY     50  39  66 E7        29.47F
LIBERAL        SUNNY     48  39  71 S7        29.40F
$$

KSZ066>073-081>083-090>101-211900-
SOUTHEAST KANSAS

CITY           SKY/WX    TMP DP  RH WIND       PRES   REMARKS
CHANUTE        SUNNY     54  39  57 S5        29.53F
6HR MIN TEMP:  34; 6HR MAX TEMP:  54;

COFFEYVILLE    CLOUDY    49  40  71 NE3       29.54F
6HR MIN TEMP:  35; 6HR MAX TEMP:  50;

HUTCHINSON     SUNNY     51  39  63 SE8       29.49F
6HR MIN TEMP:  31; 6HR MAX TEMP:  51;

MEDICINE LODGE   N/A     42  37  82 E5        29.47F
NEWTON         MOSUNNY   49  41  74 S6        29.51F
PARSONS        MOSUNNY   51  39  63 CALM      29.55F
6HR MIN TEMP:  34; 6HR MAX TEMP:  52;

WICHITA INTL   PTSUNNY   48  40  73 SE5       29.50F
6HR MIN TEMP:  28; 6HR MAX TEMP:  48;

WICHITA JABRA  PTSUNNY   49  39  68 SE5       29.50F
6HR MIN TEMP:  31; 6HR MAX TEMP:  49;

WINFIELD       CLOUDY    48  39  71 E6        29.51F
6HR MIN TEMP:  28; 6HR MAX TEMP:  48;

$$

KSZ007>012-019>026-033>040-048>060-102>105-211900-
NORTHEAST KANSAS

CITY           SKY/WX    TMP DP  RH WIND       PRES   REMARKS
CONCORDIA      SUNNY     49  39  68 VRB3      29.49F
6HR MIN TEMP:  33; 6HR MAX TEMP:  49;

EMPORIA        SUNNY     51  39  63 SW7       29.52F
6HR MIN TEMP:  30; 6HR MAX TEMP:  51;

LAWRENCE       MOSUNNY   47  42  83 S6        29.54F
6HR MIN TEMP:  38; 6HR MAX TEMP:  47;

MANHATTAN      SUNNY     49  40  71 S6        29.51F
6HR MIN TEMP:  33; 6HR MAX TEMP:  49;

OLATHE IND     SUNNY     48  42  80 S8        29.53F
6HR MIN TEMP:  37; 6HR MAX TEMP:  48;

OLATHE EXE     MOSUNNY   46  42  86 S9        29.54F
6HR MIN TEMP:  36; 6HR MAX TEMP:  46;

SALINA         SUNNY     46  39  76 S7        29.51F
TOPEKA BILLARD SUNNY     49  41  74 S9        29.53F
6HR MIN TEMP:  29; 6HR MAX TEMP:  49;

TOPEKA FORBES  SUNNY     50  41  71 S7        29.52F
6HR MIN TEMP:  33; 6HR MAX TEMP:  50;

$$




USA.gov is the U.S. government's official web portal to all federal, state and local government web resources and services.